| time (UTC) | temp C | wind direction | speed KPH | gust KPH | rain 1hr cm | rain 24hr cm | rain mn cm | humidity % | barometer mb |
| 20260504130357 | 11 | 215 | 8.0 | 16.1 | 0.00 | 0.00 | 0.00 | 59 | 1005.0 |
| 20260504110318 | 5 | 203 | 6.4 | 14.5 | 0.00 | 0.00 | 0.00 | 70 | 1005.2 |
| 20260504100250 | 3 | 220 | 4.8 | 9.7 | 0.00 | 0.00 | 0.00 | 75 | 1005.0 |
| 20260504081243 | 3 | 201 | 6.4 | 12.9 | 0.00 | 0.00 | 0.00 | 73 | 1005.3 |
| 20260504080738 | 3 | 221 | 6.4 | 14.5 | 0.00 | 0.00 | 0.00 | 73 | 1005.2 |
| 20260504080239 | 3 | 206 | 4.8 | 14.5 | 0.00 | 0.00 | 0.00 | 73 | 1005.3 |
| 20260504070231 | 4 | 233 | 6.4 | 14.5 | 0.00 | 0.00 | 0.00 | 72 | 1005.2 |
| 20260504060203 | 6 | 155 | 3.2 | 9.7 | 0.00 | 0.00 | 0.00 | 64 | 1004.9 |
| 20260504050704 | 7 | 219 | 8.0 | 16.1 | 0.00 | 0.00 | 0.00 | 58 | 1004.7 |
| 20260504050204 | 7 | 234 | 8.0 | 14.5 | 0.00 | 0.00 | 0.00 | 58 | 1004.8 |
| 20260504045703 | 7 | 206 | 6.4 | 14.5 | 0.00 | 0.00 | 0.00 | 58 | 1004.9 |
| 20260504045204 | 7 | 228 | 6.4 | 14.5 | 0.00 | 0.00 | 0.00 | 58 | 1004.9 |
| 20260504044702 | 7 | 212 | 6.4 | 14.5 | 0.00 | 0.00 | 0.00 | 58 | 1004.8 |
| 20260504044202 | 7 | 240 | 6.4 | 12.9 | 0.00 | 0.00 | 0.00 | 58 | 1004.9 |
| 20260504043702 | 7 | 255 | 6.4 | 12.9 | 0.00 | 0.00 | 0.00 | 58 | 1004.8 |
| 20260504043202 | 7 | 240 | 6.4 | 14.5 | 0.00 | 0.00 | 0.00 | 58 | 1004.8 |
| 20260504042701 | 7 | 202 | 6.4 | 14.5 | 0.00 | 0.00 | 0.00 | 58 | 1004.8 |
| 20260504042203 | 7 | 243 | 6.4 | 12.9 | 0.00 | 0.00 | 0.00 | 58 | 1004.7 |
| 20260504041701 | 7 | 215 | 6.4 | 11.3 | 0.00 | 0.00 | 0.00 | 58 | 1004.7 |
| 20260504041201 | 7 | 221 | 4.8 | 11.3 | 0.00 | 0.00 | 0.00 | 58 | 1004.8 |
| 20260504040706 | 7 | 193 | 4.8 | 11.3 | 0.00 | 0.00 | 0.00 | 59 | 1004.7 |
| 20260504040202 | 7 | 252 | 6.4 | 11.3 | 0.00 | 0.00 | 0.00 | 58 | 1004.8 |
| 20260504035706 | 7 | 231 | 4.8 | 9.7 | 0.00 | 0.00 | 0.00 | 58 | 1004.7 |
| 20260504035204 | 7 | 243 | 4.8 | 9.7 | 0.00 | 0.00 | 0.00 | 59 | 1004.7 |
| 20260504034705 | 7 | 220 | 6.4 | 14.5 | 0.00 | 0.00 | 0.00 | 57 | 1004.8 |
| 20260504034204 | 7 | 215 | 4.8 | 14.5 | 0.00 | 0.00 | 0.00 | 58 | 1004.7 |
| 20260504033704 | 7 | 236 | 4.8 | 16.1 | 0.00 | 0.00 | 0.00 | 57 | 1004.7 |
| 20260504033508 | 7 | 236 | 4.8 | 16.1 | 0.00 | 0.00 | 0.00 | 57 | 1004.6 |
| 20260504032703 | 7 | 227 | 4.8 | 11.3 | 0.00 | 0.00 | 0.00 | 57 | 1004.7 |
| 20260504032204 | 7 | 219 | 4.8 | 11.3 | 0.00 | 0.00 | 0.00 | 56 | 1004.7 |
| 20260504032013 | 7 | 220 | 6.4 | 12.9 | 0.00 | 0.00 | 0.00 | 56 | 1004.7 |
| 20260504031205 | 7 | 223 | 6.4 | 12.9 | 0.00 | 0.00 | 0.00 | 55 | 1004.7 |
| 20260504030704 | 7 | 152 | 6.4 | 11.3 | 0.00 | 0.00 | 0.00 | 56 | 1004.6 |
| 20260504030203 | 7 | 231 | 6.4 | 11.3 | 0.00 | 0.00 | 0.00 | 56 | 1004.7 |
| 20260504025704 | 7 | 238 | 6.4 | 16.1 | 0.00 | 0.00 | 0.00 | 56 | 1004.7 |
| 20260504025203 | 7 | 248 | 6.4 | 16.1 | 0.00 | 0.00 | 0.00 | 57 | 1004.6 |
| 20260504024705 | 7 | 252 | 6.4 | 14.5 | 0.00 | 0.00 | 0.00 | 57 | 1004.6 |
| 20260504024206 | 7 | 223 | 6.4 | 14.5 | 0.00 | 0.00 | 0.00 | 57 | 1004.6 |
| 20260504023704 | 7 | 226 | 6.4 | 12.9 | 0.00 | 0.00 | 0.00 | 59 | 1004.7 |
| 20260504023203 | 7 | 230 | 4.8 | 12.9 | 0.00 | 0.00 | 0.00 | 58 | 1004.7 |
| 20260504022704 | 7 | 229 | 4.8 | 11.3 | 0.00 | 0.00 | 0.00 | 59 | 1004.7 |
| 20260504022204 | 7 | 240 | 4.8 | 11.3 | 0.00 | 0.00 | 0.00 | 59 | 1004.7 |
| 20260504021704 | 7 | 226 | 4.8 | 11.3 | 0.00 | 0.00 | 0.00 | 60 | 1004.7 |
| 20260504021205 | 6 | 283 | 4.8 | 11.3 | 0.00 | 0.00 | 0.00 | 60 | 1004.7 |
| 20260504020818 | 6 | 190 | 4.8 | 11.3 | 0.00 | 0.00 | 0.00 | 62 | 1004.8 |
| 20260504020750 | 6 | 223 | 4.8 | 9.7 | 0.00 | 0.00 | 0.00 | 61 | 1004.7 |
| 20260504020009 | 6 | 223 | 4.8 | 11.3 | 0.00 | 0.00 | 0.00 | 63 | 1004.7 |
| 20260504015203 | 6 | 226 | 4.8 | 11.3 | 0.00 | 0.00 | 0.00 | 63 | 1004.6 |
| 20260504014702 | 6 | 226 | 3.2 | 11.3 | 0.00 | 0.00 | 0.00 | 64 | 1004.6 |
| 20260504014203 | 6 | 190 | 3.2 | 6.4 | 0.00 | 0.00 | 0.00 | 66 | 1004.6 |
| 20260504013703 | 6 | 238 | 3.2 | 8.0 | 0.00 | 0.00 | 0.00 | 66 | 1004.4 |
| 20260504013322 | 6 | 258 | 3.2 | 11.3 | 0.00 | 0.00 | 0.00 | 65 | 1004.4 |
| 20260504013256 | 6 | 206 | 3.2 | 11.3 | 0.00 | 0.00 | 0.00 | 65 | 1004.3 |
| 20260504012311 | 6 | 259 | 3.2 | 4.8 | 0.00 | 0.00 | 0.00 | 65 | 1004.4 |
| 20260504012249 | 6 | 283 | 3.2 | 8.0 | 0.00 | 0.00 | 0.00 | 66 | 1004.9 |
| 20260504011201 | 6 | 236 | 3.2 | 4.8 | 0.00 | 0.00 | 0.00 | 63 | 1004.4 |
| 20260504010701 | 7 | 253 | 3.2 | 6.4 | 0.00 | 0.00 | 0.00 | 64 | 1004.4 |
| 20260504010203 | 7 | 238 | 3.2 | 6.4 | 0.00 | 0.00 | 0.00 | 61 | 1004.3 |
| 20260504005701 | 7 | 226 | 3.2 | 6.4 | 0.00 | 0.00 | 0.00 | 60 | 1004.2 |
| 20260504005202 | 7 | 269 | 3.2 | 4.8 | 0.00 | 0.00 | 0.00 | 59 | 1004.3 |
| 20260504004702 | 8 | 234 | 3.2 | 6.4 | 0.00 | 0.00 | 0.00 | 58 | 1004.2 |
| 20260504004203 | 8 | 253 | 1.6 | 6.4 | 0.00 | 0.00 | 0.00 | 57 | 1004.3 |
| 20260504003700 | 8 | 258 | 1.6 | 3.2 | 0.00 | 0.00 | 0.00 | 56 | 1004.2 |
| 20260504003508 | 8 | 222 | 1.6 | 6.4 | 0.00 | 0.00 | 0.00 | 54 | 1004.1 |
| 20260504002701 | 9 | 223 | 3.2 | 6.4 | 0.00 | 0.00 | 0.00 | 54 | 1004.1 |
| 20260504002201 | 9 | 178 | 3.2 | 6.4 | 0.00 | 0.00 | 0.00 | 52 | 1003.9 |
| 20260504001700 | 9 | 202 | 3.2 | 6.4 | 0.00 | 0.00 | 0.00 | 52 | 1004.0 |
| 20260504001200 | 10 | 223 | 3.2 | 4.8 | 0.00 | 0.00 | 0.00 | 52 | 1003.9 |
| 20260504000701 | 10 | 202 | 4.8 | 11.3 | 0.00 | 0.00 | 0.00 | 51 | 1003.9 |
| 20260504000609 | 10 | 245 | 6.4 | 16.1 | 0.00 | 0.00 | 0.00 | 50 | 1003.8 |
| 20260504000602 | 10 | 223 | 6.4 | 16.1 | 0.00 | 0.00 | 0.00 | 51 | 1003.9 |
| 20260503235456 | 10 | 238 | 6.4 | 12.9 | 0.00 | 0.00 | 0.00 | 50 | 1003.9 |
| 20260503234700 | 10 | 227 | 6.4 | 12.9 | 0.00 | 0.00 | 0.00 | 50 | 1003.8 |
| 20260503234202 | 10 | 231 | 6.4 | 14.5 | 0.00 | 0.00 | 0.00 | 49 | 1003.7 |
| 20260503233701 | 10 | 252 | 6.4 | 14.5 | 0.00 | 0.00 | 0.00 | 49 | 1003.8 |
| 20260503233501 | 10 | 277 | 6.4 | 16.1 | 0.00 | 0.00 | 0.00 | 49 | 1003.8 |
| 20260503232701 | 10 | 264 | 6.4 | 16.1 | 0.00 | 0.00 | 0.00 | 49 | 1003.7 |
| 20260503232203 | 10 | 243 | 4.8 | 16.1 | 0.00 | 0.00 | 0.00 | 49 | 1003.7 |
| 20260503231701 | 10 | 324 | 6.4 | 16.1 | 0.00 | 0.00 | 0.00 | 49 | 1003.7 |
| 20260503231202 | 10 | 269 | 4.8 | 16.1 | 0.00 | 0.00 | 0.00 | 48 | 1003.7 |
| 20260503230701 | 10 | 228 | 3.2 | 12.9 | 0.00 | 0.00 | 0.00 | 49 | 1003.7 |
| 20260503230414 | 11 | 274 | 8.0 | 19.3 | 0.00 | 0.00 | 0.00 | 48 | 1003.7 |
| 20260503230336 | 10 | 258 | 4.8 | 14.5 | 0.00 | 0.00 | 0.00 | 48 | 1003.7 |
| 20260503230100 | 10 | 269 | 8.0 | 14.5 | 0.00 | 0.00 | 0.00 | 49 | 1003.7 |
| 20260503225008 | 11 | 307 | 8.0 | 19.3 | 0.00 | 0.00 | 0.00 | 47 | 1003.7 |
| 20260503224201 | 11 | 260 | 6.4 | 16.1 | 0.00 | 0.00 | 0.00 | 47 | 1003.7 |
| 20260503223700 | 11 | 226 | 6.4 | 16.1 | 0.00 | 0.00 | 0.00 | 48 | 1003.6 |
| 20260503223201 | 11 | 274 | 6.4 | 16.1 | 0.00 | 0.00 | 0.00 | 47 | 1003.7 |
| 20260503222702 | 11 | 257 | 8.0 | 17.7 | 0.00 | 0.00 | 0.00 | 48 | 1003.7 |
| 20260503222202 | 11 | 276 | 9.7 | 22.5 | 0.00 | 0.00 | 0.00 | 48 | 1003.8 |
| 20260503221701 | 11 | 238 | 11.3 | 22.5 | 0.00 | 0.00 | 0.00 | 47 | 1003.7 |
| 20260503221159 | 11 | 308 | 9.7 | 22.5 | 0.00 | 0.00 | 0.00 | 46 | 1003.8 |
| 20260503220653 | 11 | 276 | 9.7 | 24.1 | 0.00 | 0.00 | 0.00 | 46 | 1003.7 |
| 20260503220147 | 11 | 231 | 9.7 | 24.1 | 0.00 | 0.00 | 0.00 | 46 | 1003.7 |
| 20260503215641 | 11 | 257 | 11.3 | 29.0 | 0.00 | 0.00 | 0.00 | 48 | 1003.7 |
| 20260503215135 | 11 | 243 | 12.9 | 30.6 | 0.00 | 0.00 | 0.00 | 46 | 1003.8 |
| 20260503214632 | 11 | 305 | 14.5 | 30.6 | 0.00 | 0.00 | 0.00 | 45 | 1003.8 |
| 20260503214433 | 11 | 281 | 14.5 | 37.0 | 0.00 | 0.00 | 0.00 | 45 | 1003.7 |
| 20260503213632 | 11 | 329 | 12.9 | 37.0 | 0.00 | 0.00 | 0.00 | 45 | 1003.6 |
| 20260503213441 | 11 | 6 | 11.3 | 25.7 | 0.00 | 0.00 | 0.00 | 46 | 1003.4 |
| 20260503212634 | 11 | 276 | 11.3 | 33.8 | 0.00 | 0.00 | 0.00 | 45 | 1003.5 |
| 20260503212437 | 11 | 302 | 12.9 | 33.8 | 0.00 | 0.00 | 0.00 | 45 | 1003.4 |
| 20260503211632 | 11 | 218 | 16.1 | 30.6 | 0.00 | 0.00 | 0.00 | 44 | 1003.5 |
| 20260503211133 | 11 | 238 | 16.1 | 37.0 | 0.00 | 0.00 | 0.00 | 43 | 1003.4 |
| 20260503210632 | 11 | 284 | 16.1 | 37.0 | 0.00 | 0.00 | 0.00 | 43 | 1003.2 |
| 20260503210132 | 11 | 285 | 14.5 | 29.0 | 0.00 | 0.00 | 0.00 | 41 | 1003.4 |
| 20260503205632 | 11 | 250 | 12.9 | 27.4 | 0.00 | 0.00 | 0.00 | 42 | 1003.4 |
| 20260503205133 | 11 | 89 | 9.7 | 22.5 | 0.00 | 0.00 | 0.00 | 42 | 1003.3 |
| 20260503204632 | 11 | 302 | 9.7 | 24.1 | 0.00 | 0.00 | 0.00 | 40 | 1003.2 |
| 20260503204132 | 11 | 248 | 12.9 | 29.0 | 0.00 | 0.00 | 0.00 | 42 | 1003.1 |
| 20260503203632 | 11 | 335 | 14.5 | 29.0 | 0.00 | 0.00 | 0.00 | 39 | 1003.2 |
| 20260503203134 | 11 | 265 | 14.5 | 29.0 | 0.00 | 0.00 | 0.00 | 41 | 1003.2 |
| 20260503202632 | 11 | 252 | 12.9 | 24.1 | 0.00 | 0.00 | 0.00 | 41 | 1003.2 |
| 20260503202131 | 11 | 266 | 9.7 | 24.1 | 0.00 | 0.00 | 0.00 | 40 | 1003.2 |
| 20260503201630 | 11 | 257 | 9.7 | 20.9 | 0.00 | 0.00 | 0.00 | 43 | 1003.2 |
| 20260503201129 | 11 | 253 | 14.5 | 37.0 | 0.00 | 0.00 | 0.00 | 40 | 1003.2 |
| 20260503200632 | 11 | 269 | 16.1 | 48.3 | 0.00 | 0.00 | 0.00 | 38 | 1003.3 |
| 20260503200129 | 11 | 257 | 16.1 | 48.3 | 0.00 | 0.00 | 0.00 | 39 | 1003.3 |
| 20260503195629 | 12 | 245 | 12.9 | 32.2 | 0.00 | 0.00 | 0.00 | 38 | 1003.3 |
| 20260503195443 | 12 | 269 | 8.0 | 25.7 | 0.00 | 0.00 | 0.00 | 41 | 1003.5 |
| 20260503194629 | 11 | 56 | 8.0 | 19.3 | 0.00 | 0.00 | 0.00 | 41 | 1003.4 |
| 20260503194129 | 11 | 286 | 11.3 | 30.6 | 0.00 | 0.00 | 0.00 | 40 | 1003.5 |
| 20260503193629 | 11 | 274 | 14.5 | 37.0 | 0.00 | 0.00 | 0.00 | 41 | 1003.6 |
| 20260503193130 | 11 | 290 | 14.5 | 37.0 | 0.00 | 0.00 | 0.00 | 40 | 1003.6 |
| 20260503192932 | 11 | 296 | 12.9 | 30.6 | 0.00 | 0.00 | 0.00 | 39 | 1003.7 |
| 20260503192130 | 11 | 276 | 14.5 | 32.2 | 0.00 | 0.00 | 0.00 | 42 | 1003.8 |
| 20260503191936 | 10 | 314 | 14.5 | 35.4 | 0.00 | 0.00 | 0.00 | 41 | 1003.9 |
| 20260503191130 | 10 | 284 | 12.9 | 35.4 | 0.00 | 0.00 | 0.00 | 41 | 1004.0 |
| 20260503190937 | 10 | 278 | 11.3 | 29.0 | 0.00 | 0.00 | 0.00 | 43 | 1004.1 |
| 20260503190130 | 10 | 272 | 12.9 | 27.4 | 0.00 | 0.00 | 0.00 | 41 | 1004.2 |
| 20260503185631 | 10 | 15 | 12.9 | 27.4 | 0.00 | 0.00 | 0.00 | 41 | 1004.3 |
| 20260503185131 | 10 | 308 | 14.5 | 33.8 | 0.00 | 0.00 | 0.00 | 43 | 1004.3 |
| 20260503184630 | 10 | 295 | 16.1 | 33.8 | 0.00 | 0.00 | 0.00 | 41 | 1004.4 |
| 20260503184129 | 10 | 315 | 14.5 | 30.6 | 0.00 | 0.00 | 0.00 | 42 | 1004.3 |
| 20260503183629 | 10 | 315 | 12.9 | 30.6 | 0.00 | 0.00 | 0.00 | 42 | 1004.6 |
| 20260503183129 | 10 | 290 | 12.9 | 27.4 | 0.00 | 0.00 | 0.00 | 41 | 1004.6 |
| 20260503182630 | 10 | 34 | 11.3 | 29.0 | 0.00 | 0.00 | 0.00 | 42 | 1004.6 |
| 20260503182129 | 10 | 298 | 11.3 | 29.0 | 0.00 | 0.00 | 0.00 | 45 | 1004.4 |
| 20260503181929 | 9 | 264 | 14.5 | 33.8 | 0.00 | 0.00 | 0.00 | 45 | 1004.6 |
| 20260503181129 | 9 | 278 | 16.1 | 33.8 | 0.00 | 0.00 | 0.00 | 44 | 1004.6 |
| 20260503180629 | 9 | 205 | 11.3 | 32.2 | 0.00 | 0.00 | 0.00 | 43 | 1004.6 |
| 20260503180436 | 9 | 227 | 9.7 | 22.5 | 0.00 | 0.00 | 0.00 | 47 | 1004.8 |
| 20260503175631 | 9 | 341 | 14.5 | 32.2 | 0.00 | 0.00 | 0.00 | 43 | 1004.9 |
| 20260503175130 | 9 | 291 | 17.7 | 33.8 | 0.00 | 0.00 | 0.00 | 41 | 1004.8 |
| 20260503174629 | 10 | 257 | 17.7 | 38.6 | 0.00 | 0.00 | 0.00 | 44 | 1004.9 |
| 20260503174129 | 9 | 271 | 16.1 | 38.6 | 0.00 | 0.00 | 0.00 | 45 | 1004.8 |
| 20260503173629 | 8 | 274 | 12.9 | 27.4 | 0.00 | 0.00 | 0.00 | 43 | 1004.9 |
| 20260503173129 | 8 | 286 | 12.9 | 27.4 | 0.00 | 0.00 | 0.00 | 44 | 1004.9 |
| 20260503172628 | 8 | 37 | 12.9 | 30.6 | 0.00 | 0.00 | 0.00 | 46 | 1004.9 |
| 20260503172130 | 8 | 308 | 12.9 | 30.6 | 0.00 | 0.00 | 0.00 | 43 | 1004.9 |
| 20260503171631 | 9 | 23 | 14.5 | 30.6 | 0.00 | 0.00 | 0.00 | 42 | 1004.9 |
| 20260503171129 | 9 | 312 | 12.9 | 30.6 | 0.00 | 0.00 | 0.00 | 44 | 1004.9 |
| 20260503170631 | 8 | 271 | 14.5 | 37.0 | 0.00 | 0.00 | 0.00 | 46 | 1004.9 |
| 20260503170252 | 8 | 252 | 9.7 | 27.4 | 0.00 | 0.00 | 0.00 | 44 | 1004.9 |
| 20260503170221 | 8 | 293 | 12.9 | 37.0 | 0.00 | 0.00 | 0.00 | 44 | 1004.8 |
| 20260503150633 | 5 | 295 | 12.9 | 29.0 | 0.00 | 0.00 | 0.00 | 54 | 1005.4 |
| 20260503150133 | 5 | 288 | 12.9 | 27.4 | 0.00 | 0.00 | 0.00 | 54 | 1005.3 |
| 20260503140131 | 5 | 89 | 11.3 | 25.7 | 0.00 | 0.00 | 0.00 | 60 | 1005.5 |